Home   Weather   Leonding   Past weeks

Flag for Austria Past Weather in Leonding, Upper Austria, Austria — Yesterday and Last 2 Weeks

Now
66 °F

Passing clouds.


Feels Like: 66 °F
Forecast: 54 / 72 °F
Wind: 6 mph from West

Location: Linz / Hoersching-Flughafen

Current Time: Sep 28, 2016 at 2:04:32 PM

Latest Report: Sep 28, 2016 at 1:20 PM


Visibility: N/A

Pressure: 30.39 "Hg

Humidity: 68%

Dew Point: 55 °F

Location of LeondingLocation

Past Weather in Leonding — Graph

°F

Leonding Temperature Yesterday

Maximum temperature yesterday: 70 °F (at 2:50 PM)
Minimum temperature yesterday: 46 °F (at 5:50 AM)
Average temperature yesterday: 57 °F

High & Low Weather Summary for the Past Weeks

 TemperatureHumidityPressure
High86 °F (Sep 13, 3:50 PM)100% (Sep 18, 3:20 AM)30.42 "Hg (Sep 18, 3:20 AM)
Low43 °F (Sep 23, 6:20 AM)33% (Sep 13, 3:50 PM)29.80 "Hg (Sep 17, 12:50 AM)
Average60 °F78%30.08 "Hg
* Reported Sep 13 12:20 PM — Sep 28 12:20 PM, Leonding, Weather by CustomWeather, © 2016

Note: Actual official high and low records may vary slightly from our data, if they occured in-between our weather recording intervals... More about our weather records

Advertising

Leonding Weather History for the Previous 24 Hours

Scroll right to see more
 ConditionsComfort  
Time TempWeatherWind HumidityBarometerVisibility
12:20 PM
Wed, Sep 28
63 °FSunny.2 mph77%30.42 "Hg10 mi
11:50 AM61 °FPassing clouds.3 mph77%30.42 "HgN/A
11:20 AM59 °FSunny.2 mph82%30.42 "Hg10 mi
10:50 AM57 °FSunny.2 mph82%30.42 "Hg10 mi
10:20 AM55 °FPartly sunny.1 mph88%30.42 "Hg5 mi
9:50 AM54 °FPartly sunny.5 mph94%30.42 "Hg3 mi
9:20 AM52 °FFog.1 mph94%30.42 "Hg4 mi
8:50 AM50 °FFog.2 mph94%30.42 "Hg3 mi
8:20 AM50 °FCool.2 mph94%30.39 "Hg2 mi
7:50 AM46 °FFog.5 mph100%30.39 "Hg3 mi
7:20 AM46 °FFog.2 mph100%30.39 "Hg3 mi
6:50 AM46 °FClear.3 mph100%30.39 "Hg2 mi
6:20 AM46 °FFog.2 mph100%30.39 "Hg4 mi
5:50 AM46 °FFog.1 mph100%30.39 "Hg5 mi
5:20 AM46 °FFog.2 mph100%30.39 "Hg5 mi
4:50 AM48 °FFog.1 mph94%30.39 "Hg5 mi
4:20 AM48 °FFog.2 mph94%30.39 "Hg5 mi
3:50 AM48 °FCool.2 mph100%30.39 "Hg5 mi
3:20 AM48 °FCool.1 mph100%30.39 "Hg3 mi
2:50 AM50 °FCool.1 mph94%30.39 "Hg5 mi
1:50 AM52 °FCool.1 mph94%30.39 "HgN/A
1:20 AM52 °FCool.1 mph94%30.39 "HgN/A
12:50 AM54 °FCool.2 mph88%30.39 "HgN/A
12:20 AM52 °FPassing clouds.1 mph94%30.39 "HgN/A
11:50 PM
Tue, Sep 27
52 °FPassing clouds.2 mph94%30.39 "HgN/A
11:20 PM54 °FPassing clouds.2 mph88%30.39 "HgN/A
10:50 PM54 °FPassing clouds.2 mph88%30.39 "HgN/A
10:20 PM54 °FPassing clouds.3 mph88%30.36 "HgN/A
9:50 PM54 °FCool.3 mph88%30.36 "HgN/A
9:20 PM55 °FPassing clouds.3 mph82%30.36 "HgN/A
8:50 PM57 °FPassing clouds.2 mph82%30.36 "HgN/A
8:20 PM59 °FCool.3 mph77%30.33 "HgN/A
7:50 PM61 °FPassing clouds.1 mph68%30.33 "HgN/A
7:20 PM64 °FPassing clouds.1 mph56%30.33 "HgN/A
6:50 PM64 °FPassing clouds.1 mph56%30.33 "HgN/A
6:20 PM68 °FPassing clouds.1 mph49%30.30 "HgN/A
5:50 PM70 °FPassing clouds.1 mph50%30.30 "HgN/A
5:20 PM70 °FPassing clouds.2 mph46%30.30 "HgN/A
4:50 PM70 °FPassing clouds.2 mph46%30.30 "HgN/A
4:20 PM70 °FScattered clouds.3 mph46%30.30 "HgN/A
3:50 PM70 °FPassing clouds.3 mph46%30.30 "HgN/A
3:20 PM70 °FPassing clouds.3 mph50%30.30 "HgN/A
2:50 PM70 °FPassing clouds.2 mph53%30.30 "HgN/A
2:20 PM68 °FPassing clouds.3 mph56%30.30 "HgN/A
Weather by CustomWeather, © 2016

See weather overviewHow to use our weather pages